Regional Weather Roundup
Issued by NWS

Home | Current Version | Previous Version | Text Only | Print | Product List | Glossary On
Versions: 1 2 3 4 5 6 7 8 9 10 11 12 13 14 15 16 17 18 19 20 21 22 23 24 25 26 27 28 29 30 31 32 33 34 35 36 37 38 39 40 41 42 43 44 45 46 47 48 49 50
000
ASUS46 KPQR 242110
RWROR

OREGON REGIONAL WEATHER ROUNDUP
NATIONAL WEATHER SERVICE PORTLAND OR
200 PM PDT WED MAY 24 2017

NOTE: "FAIR" INDICATES FEW OR NO CLOUDS BELOW 12,000 FEET WITH
NO SIGNIFICANT WEATHER AND/OR OBSTRUCTIONS TO VISIBILITY.

ORZ001>013-242200-
NORTHWEST OREGON


CITY           SKY/WX    TMP DP  RH WIND       PRES   REMARKS
ASTORIA        CLOUDY    56  45  66 NW20G26   30.07S
NEWPORT        SUNNY     55  48  76 NW18G24   30.11S
PORTLAND       PTSUNNY   61  42  49 NW8       30.02F
VANCOUVER WA   PTSUNNY   61  45  55 W6        30.02F
SCAPPOOSE      CLOUDY    60  46  59 E9        30.01F
HILLSBORO      CLOUDY    63  43  48 VRB6G16   30.02F
AURORA         PTSUNNY   62  43  49 VRB7      30.04F
MCMINNVILLE    MOSUNNY   62  43  49 VRB3      30.04F
SALEM          CLOUDY    63  42  46 N7        30.03F
CORVALLIS      MOSUNNY   66  39  37 CALM      30.05F
EUGENE         MOSUNNY   61  43  51 N14G21    30.04F
$$

ORZ021-028-242200-
SOUTHWEST OREGON


CITY           SKY/WX    TMP DP  RH WIND       PRES   REMARKS
NORTH BEND     SUNNY     57  45  62 N29G36    30.04F
BROOKINGS      SUNNY     72  48  42 NW15      29.81F
ROSEBURG       SUNNY     67  37  33 N17G25    29.98F
SEXTON SUMMIT  SUNNY     62  37  39 VRB5      29.95F
MEDFORD        SUNNY     77  34  21 W12G20    29.85F
$$

ORZ014>016-041-242200-
COLUMBIA GORGE


CITY           SKY/WX    TMP DP  RH WIND       PRES   REMARKS
TROUTDALE      CLOUDY    62  42  47 VRB6      30.02F
HOOD RIVER     CLOUDY    57  37  47 W7        29.96F
THE DALLES     SUNNY     68  38  33 W25G38    29.91F
$$

ORZ029>031-041-044-049-050-061>064-502-503-505>511-242200-
EASTERN OREGON


CITY           SKY/WX    TMP DP  RH WIND       PRES   REMARKS
REDMOND        SUNNY     67  21  17 N14G22    29.87F
BEND           SUNNY     64  23  20 NW10      29.83F
PRINEVILLE     SUNNY     63  21  20 MISG      29.88F
KLAMATH FALLS  SUNNY     74  35  24 NW13      29.83F
HERMISTON      SUNNY     68  29  23 CALM      29.84F
PENDLETON      SUNNY     62  32  32 SW9       29.85F
JOHN DAY       SUNNY     64  22  20 W20G26    29.82F
MEACHAM        MOSUNNY   53  19  26 VRB6      29.88F
LA GRANDE      SUNNY     61  30  31 N15G25    29.83S
BAKER CITY     SUNNY     60  26  27 N26G36    29.78F
BURNS          SUNNY     66  12  12 W16G25    29.81F
ROME             N/A     78  22  12 W10G21    29.73F
ONTARIO        SUNNY     75  19  12 N13G25    29.71F
$$



USA.gov is the U.S. government's official web portal to all federal, state and local government web resources and services.